RH
62 89 84 78 82 80 86 89 86 88 97 94 88 84 74 94 95 97 94 86 84 94 93 92 93 94 93 92 92 92 76 55 56 66 68 70 76 92 89 79 72 80 87
60 83 84 83 80 83 86 89 87 91 93 96 86 77 85 95 97 90 88 87 89 88 84 90 93 94 94 94 95 96 89 71 60 73 77 88 93 82 63 55 74 96 97
59 78 90 86 83 86 88 92 88 89 90 93 89 84 96 97 92 95 90 85 86 89 86 91 93 96 93 94 85 72 75 71 70 67 78 76 91 90 83 82 94 97 96
56 73 80 85 82 87 89 88 84 80 77 85 91 93 94 96 95 90 88 88 89 92 95 93 96 86 85 81 78 65 65 78 72 69 63 77 81 94 98 99 97 97 93
55 63 84 82 84 88 83 82 81 74 72 70 86 94 94 98 94 96 88 94 95 96 97 96 91 79 75 75 73 58 54 70 67 62 79 76 81 96 97 85 94 96 96
54 58 78 83 86 83 82 83 76 61 63 66 75 92 94 97 98 93 66 58 79 88 96 93 79 76 73 75 68 63 62 64 61 64 65 75 85 94 94 88 79 72 86
51 68 83 84 86 82 86 79 69 61 59 76 74 83 91 93 87 86 73 54 67 77 89 90 78 72 68 67 64 61 59 63 58 62 66 75 90 88 82 81 79 82 84
52 69 86 88 86 84 85 75 68 62 77 79 74 68 86 85 77 84 82 63 63 67 62 64 64 64 64 63 64 65 63 66 56 60 68 79 83 92 84 60 51 70 77
55 63 75 94 90 83 81 74 73 53 83 86 76 76 74 86 79 82 81 77 55 64 64 61 62 64 64 64 64 64 63 61 59 60 57 73 73 90 73 65 60 71 72
63 67 80 85 85 88 90 79 75 52 82 86 86 85 80 79 82 83 79 77 69 54 57 59 58 55 56 58 60 61 61 61 60 60 59 70 72 90 76 67 61 56 47
76 77 82 77 78 78 76 88 76 62 55 81 81 78 76 73 83 75 93 80 73 59 56 58 56 56 54 53 51 52 56 58 54 55 55 67 57 94 84 77 67 64 52
77 81 79 76 79 81 80 85 75 75 63 60 73 76 64 59 64 69 84 76 73 68 53 59 60 59 52 58 56 52 56 51 51 52 54 60 50 74 96 83 77 67 63
76 70 78 76 78 81 78 77 66 68 62 55 49 51 49 53 62 64 70 75 78 70 78 66 76 76 62 61 54 49 49 51 50 49 49 52 48 55 95 97 86 77 71
70 75 78 72 78 77 79 79 62 61 63 60 60 58 57 54 54 50 53 60 67 65 58 60 58 59 63 64 60 55 49 49 47 46 47 48 47 48 58 97 96 87 82
80 83 84 83 81 73 76 74 72 65 64 63 66 65 61 59 56 54 51 51 53 53 52 52 58 61 63 63 60 59 56 53 50 50 51 50 52 47 51 61 94 98 96
80 77 81 80 79 75 76 77 64 60 61 63 66 70 68 63 62 61 61 61 52 52 53 55 60 63 65 65 65 64 63 62 61 62 62 59 57 60 58 56 61 90 85
74 73 71 73 76 78 81 79 65 60 61 62 64 68 73 71 68 64 65 65 66 62 61 62 65 67 68 68 67 66 65 64 64 63 65 66 63 65 67 67 60 64 90
65 72 72 72 73 75 70 72 68 64 64 64 65 68 72 72 74 72 69 70 71 70 71 71 70 70 68 66 64 63 62 63 65 65 66 68 70 69 69 71 71 64 66
66 68 75 79 79 76 74 72 73 71 69 67 68 68 71 74 74 76 74 72 71 72 72 73 71 70 69 68 68 68 67 66 66 66 67 68 69 72 75 74 75 75 71
58 65 71 78 80 78 80 80 77 77 74 72 68 67 69 70 73 76 76 75 72 73 74 74 74 74 75 76 74 70 68 69 69 70 70 68 66 68 74 76 80 79 75
30 57 65 73 79 77 78 80 82 84 83 79 76 75 74 73 71 74 79 78 78 82 80 76 74 76 77 80 78 81 78 71 70 70 70 69 66 67 70 71 75 76 74
24 27 43 64 72 76 75 76 76 76 76 70 78 81 81 82 82 82 82 86 88 89 92 85 84 85 85 83 88 81 83 64 59 62 65 64 66 62 62 65 68 68 68
27 29 29 39 61 70 76 77 83 84 84 86 84 85 86 90 90 93 94 95 94 95 94 93 93 93 96 90 88 90 83 71 58 60 64 65 62 61 62 64 67 69 71
32 40 39 38 43 55 69 87 84 80 77 72 72 79 89 85 84 84 85 90 95 96 97 95 97 96 94 94 91 94 84 86 83 72 62 67 66 66 67 70 67 66 70
40 50 47 47 47 47 50 56 66 70 58 56 53 52 52 56 54 55 53 58 61 70 76 79 84 90 92 90 88 88 93 99 93 99 92 75 69 74 72 71 68 67 72
48 56 52 51 51 52 50 49 47 46 46 50 52 51 53 60 72 66 59 64 67 73 81 87 91 94 94 94 91 92 89 94 96 98 97 81 83 76 66 70 72 77 80
Wind_Speed
18 21 21 19 17 13 13 12 11 9 10 9 9 9 11 13 14 14 13 14 14 15 16 16 17 17 17 17 16 16 16 17 18 18 16 15 13 12 12 14 11 12 11
23 22 22 19 18 15 13 12 10 10 9 9 9 10 13 13 14 13 13 13 14 14 14 14 16 16 16 15 15 15 15 16 17 16 16 18 18 10 10 11 12 12 11
23 22 22 19 18 16 14 12 11 9 9 9 10 13 14 15 14 14 13 13 13 13 13 14 14 15 15 14 14 14 16 16 18 17 14 14 18 15 13 13 13 16 13
23 22 20 20 18 16 14 13 11 10 9 10 11 14 13 14 14 12 13 13 13 13 13 13 13 14 13 12 11 13 16 18 15 12 13 14 15 16 14 14 16 19 16
22 21 20 20 19 17 14 13 11 8 8 11 12 14 14 13 13 11 13 13 13 12 12 12 13 13 12 12 11 12 15 16 14 13 11 12 12 11 11 9 11 12 12
20 19 19 19 18 16 16 14 10 8 9 13 14 13 12 12 11 11 12 13 13 12 12 12 12 11 11 11 11 11 13 13 13 10 9 10 9 10 11 11 11 9 7
20 19 19 17 16 16 16 12 9 9 12 12 12 12 11 12 7 8 10 11 12 11 11 10 10 10 10 9 8 8 10 12 10 8 8 9 9 11 11 12 12 12 10
20 18 17 16 16 15 14 11 9 9 15 11 10 9 10 11 8 5 7 9 9 9 9 8 7 7 7 7 6 5 5 7 7 7 6 6 8 9 11 11 12 12 11
18 18 17 16 16 15 13 10 7 11 15 14 14 9 10 11 6 2 6 7 7 7 6 6 5 4 4 3 3 3 4 6 7 4 4 4 6 6 10 10 11 11 11
17 15 19 17 15 14 11 9 7 10 15 14 14 13 12 10 6 3 4 5 5 5 4 3 2 2 1 1 1 2 3 4 3 3 2 2 2 3 7 9 10 10 10
16 17 16 17 17 14 12 9 7 9 13 13 12 11 9 7 7 3 6 3 4 4 3 3 2 1 1 2 3 3 2 2 2 2 2 5 3 2 5 7 9 9 9
16 16 14 15 16 16 12 10 8 8 9 11 10 10 8 7 7 7 6 6 4 3 4 4 3 3 2 3 5 5 3 4 4 4 4 8 5 3 5 7 7 8 8
18 14 13 14 16 16 12 11 9 8 9 9 10 9 8 7 5 7 5 4 4 3 4 5 5 3 5 4 4 4 5 5 5 5 6 9 7 5 5 8 8 7 7
19 19 17 15 13 13 13 12 10 9 9 9 9 9 8 7 6 6 6 5 5 5 5 7 6 6 6 6 6 6 6 6 6 6 7 11 9 8 7 8 10 9 7
10 8 12 13 13 13 14 13 11 10 10 10 9 9 8 7 6 6 6 6 6 6 7 7 7 7 7 7 7 8 8 8 8 8 8 12 12 10 10 9 10 9 8
11 15 17 16 16 14 14 13 12 11 11 11 10 9 10 8 7 7 6 6 7 7 7 8 8 7 7 8 8 9 9 9 9 9 9 10 13 12 12 12 12 11 11
15 15 16 16 16 15 15 15 12 11 11 11 11 10 10 10 9 8 7 7 7 7 8 9 9 9 9 9 10 10 10 10 10 11 11 11 11 14 14 13 14 14 13
12 15 14 14 14 14 14 13 12 11 11 11 11 10 10 10 9 8 8 8 8 8 9 9 9 10 10 11 11 11 11 11 12 13 13 14 13 12 13 15 14 16 16
12 14 15 15 14 14 12 12 13 12 12 11 11 10 10 10 10 10 9 9 9 10 10 11 11 12 12 13 13 14 14 15 14 15 15 15 15 16 14 14 17 18 18
10 13 14 14 14 14 12 12 12 13 13 13 12 12 11 11 11 11 11 11 11 12 13 14 14 14 15 15 15 16 16 16 16 15 15 16 15 14 13 14 13 15 14
9 12 14 15 14 15 15 14 14 14 14 14 14 13 12 12 11 12 12 12 13 13 14 15 15 15 17 17 15 14 18 17 16 16 14 14 12 10 9 8 9 11 11
10 12 13 14 14 15 14 15 14 14 13 12 11 11 12 12 12 12 13 13 14 15 15 18 17 17 18 17 8 11 4 12 16 16 10 9 8 8 7 7 7 8 9
11 10 12 12 12 12 12 11 9 10 9 6 7 8 8 9 10 13 16 17 19 19 21 21 21 19 15 15 14 10 3 4 6 6 7 7 8 7 7 8 9 7 6
11 10 11 11 11 11 14 11 11 11 11 11 7 7 9 10 10 11 10 10 10 12 14 16 15 15 15 16 14 19 22 14 4 5 6 8 7 5 6 6 7 5 5
11 10 9 9 8 9 9 10 11 11 7 6 5 5 5 6 7 9 9 10 10 10 12 13 12 12 14 17 17 15 13 12 16 5 5 6 8 8 6 3 6 6 4
11 11 12 11 9 8 8 7 8 7 6 6 5 5 5 4 5 7 8 8 9 9 9 9 10 11 12 14 17 16 16 8 7 8 6 7 6 6 5 7 6 3 3
Wind_Direction
150 155 160 159 153 151 145 140 129 125 109 102 96 93 101 103 99 91 82 84 78 84 90 92 90 87 82 79 78 77 76 76 81 80 75 75 70 69 71 63 66 47 47
149 154 159 161 157 153 151 140 130 128 117 107 101 105 110 112 100 89 84 87 89 92 99 96 91 87 82 81 80 76 75 78 82 80 80 58 45 65 68 63 59 42 38
147 153 157 161 156 151 150 143 134 123 116 111 109 116 115 112 99 88 86 91 98 97 103 97 92 85 81 80 77 73 73 80 82 77 85 66 49 69 69 60 48 39 51
147 153 158 161 155 156 153 145 133 122 112 115 117 121 125 113 103 96 92 96 101 105 101 97 91 84 82 80 79 75 77 83 75 61 66 71 63 63 60 56 46 50 56
148 151 156 158 158 155 152 145 135 125 121 123 127 123 128 117 113 101 95 100 103 105 105 98 89 86 80 80 84 79 82 81 67 76 66 71 58 47 49 46 41 42 50
147 149 155 158 158 155 152 145 137 122 125 131 134 128 119 126 117 100 94 99 103 106 105 101 95 88 81 86 85 79 80 77 68 69 69 65 53 45 44 35 31 28 29
147 141 149 161 160 157 152 146 134 124 130 128 127 134 125 138 121 100 97 102 104 105 108 106 100 93 84 84 88 76 75 73 68 65 64 61 58 51 41 36 35 32 31
148 142 150 161 161 157 154 145 132 134 134 132 150 135 133 136 128 106 112 103 107 107 108 110 106 97 90 84 79 66 64 77 55 58 62 66 50 46 38 31 29 32 33
149 152 153 152 157 158 156 147 132 141 143 136 142 137 139 139 142 97 124 110 111 116 115 113 115 107 98 94 75 49 47 75 58 53 51 69 38 36 26 25 26 31 31
144 148 156 156 156 158 158 158 144 148 161 149 147 150 150 155 160 184 136 138 130 136 139 134 129 118 106 354 326 3 28 64 33 29 35 335 11 7 8 17 19 22 24
144 161 162 156 162 165 165 167 159 153 167 168 164 172 167 159 164 167 180 199 155 154 173 183 200 252 299 325 308 313 339 342 321 331 336 298 320 342 338 1 8 10 14
174 165 160 163 165 165 165 169 165 164 160 169 181 182 180 185 185 185 210 217 207 205 213 222 241 267 296 264 311 329 346 291 296 295 290 292 298 295 296 327 343 355 360
168 167 176 177 173 170 170 178 181 181 176 179 182 188 192 189 202 204 212 215 214 241 240 267 272 270 251 267 270 277 280 284 282 279 277 289 294 280 275 287 313 328 334
167 170 178 184 179 177 179 185 197 195 190 187 186 189 190 194 199 202 205 204 208 224 226 231 241 250 259 264 268 274 274 274 272 276 280 288 295 286 269 264 280 300 308
195 179 188 196 197 191 191 193 201 212 202 201 197 200 200 201 203 204 210 215 223 227 231 236 244 254 260 262 265 266 269 271 270 272 276 283 293 283 277 263 255 263 282
206 202 202 204 204 195 202 196 207 208 208 209 208 212 211 209 209 212 215 221 226 229 234 238 245 253 260 261 264 266 268 270 271 271 271 276 282 283 275 270 262 250 261
209 202 200 197 193 197 202 204 209 209 211 211 216 216 215 214 215 214 220 226 230 232 236 242 250 255 259 265 268 270 270 271 270 271 270 268 270 281 280 273 268 259 248
206 201 201 197 195 201 201 207 211 211 209 212 215 216 216 218 218 218 224 231 235 238 240 245 250 256 259 263 268 268 266 263 269 270 270 267 266 265 275 281 277 265 254
208 197 197 197 199 197 204 207 213 215 213 215 216 218 219 219 221 225 232 238 240 243 246 249 252 256 264 267 272 277 273 274 270 270 268 268 268 267 269 271 278 277 265
209 204 201 199 202 203 203 212 221 227 223 226 226 224 224 225 227 229 239 245 248 250 252 256 257 262 263 268 272 274 272 269 269 268 270 275 274 272 271 271 268 277 280
211 207 206 203 207 206 206 206 217 222 231 231 233 230 231 232 233 235 240 249 252 252 258 264 267 266 265 266 275 269 267 262 258 258 263 269 272 272 271 278 272 266 271
222 209 206 206 205 207 211 215 222 226 233 229 224 233 236 238 241 243 246 250 253 256 256 263 269 269 267 269 264 280 284 276 262 246 245 249 252 270 278 281 277 271 270
213 206 202 202 202 208 210 215 213 223 211 226 225 229 234 231 239 241 243 250 255 255 259 259 262 267 264 259 252 242 278 249 325 205 212 229 258 276 279 272 287 290 286
207 203 195 194 194 202 210 205 213 221 227 230 219 206 228 243 243 248 250 254 260 265 268 270 269 265 265 257 260 249 248 258 287 276 243 242 248 260 276 290 312 300 317
195 202 200 187 187 196 202 207 216 225 227 219 219 212 222 246 245 252 256 258 263 260 259 261 265 264 258 263 260 258 251 250 243 240 268 243 254 257 260 284 306 308 330
187 188 190 182 176 179 181 193 201 206 200 201 203 211 218 227 253 264 266 265 264 266 265 266 267 266 266 263 261 260 253 232 213 208 227 248 249 258 279 309 296 327 318